User: anonymous   Login
Location: S�tio Afonso Gruber
(26.1760°S, 49.5250°W)
Time: 17:26:02
(UTC+00:00)
Language:

Okean-O - Orbit

View from above orbital plane
View from above orbital plane
View from above satellite
View from above satellite

Ground track
Ground track

The orbit data is extracted from the following two-line orbital elements,

1 25860U 99039A   20228.05646789  .00000023  00000-0  10947-4 0  9990
2 25860  98.2124 248.0691 0001780  77.1811 282.9597 14.76672698134253
Epoch (UTC): 15 August 2020 01:21:18
Eccentricity: 0.0001780
inclination: 98.2124°
perigee height: 638 km
apogee height: 641 km
right ascension of ascending node: 248.0691°
argument of perigee: 77.1811°
revolutions per day: 14.76672698
mean anomaly at epoch: 282.9597°
orbit number at epoch: 13425

The dashed part of the orbit path shows where the satellite is in the earth's shadow,  

DLR